User: anonymous   Login
Location: Vancouver
(49.2500°N, 123.1330°W)
Time: 11:00:06
(UTC-08:00)
Language:

Oscar 11 - Orbit

View from above orbital plane
View from above orbital plane
View from above satellite
View from above satellite

Ground track
Ground track

The orbit data is extracted from the following two-line orbital elements,

1 14781U 84021B   17344.68347201 +.00000081 +00000-0 +16216-4 0  9995
2 14781 097.6752 023.6741 0008129 351.4535 008.6539 14.82963666795506
Epoch (UTC): 10 December 2017 16:24:11
Eccentricity: 0.0008129
inclination: 97.6752°
perigee height: 614 km
apogee height: 625 km
right ascension of ascending node: 23.6741°
argument of perigee: 351.4535°
revolutions per day: 14.82963666
mean anomaly at epoch: 8.6539°
orbit number at epoch: 79550

The dashed part of the orbit path shows where the satellite is in the earth's shadow,  

DLR